Aérodrome :
LOGIN :

S'inscrire | Disclaimer

   EN    FR    IT 

 










Légende :    VFR   VFR Marginal   IFR   IFR Intensif   IFR Très Intensif
Visi : 
Plafond : 
>= 8 km
>= 3000ft
5 à 8 km
1000 à 3000 ft
1500m à 5 km
500 à 1000 ft
800 à 1500m
200 à 500 ft
< 800m
< 200 ft
Symboles :   Orages  Brouillard  Fortes neiges  Fortes précipitations  Vent > 20 kt
SIGMETs :   Divers  Orages  Givrage  Turbulence  Onde Orograph.  Cendres Volcan.







- Altitude de l'aérodrome : 56 ft


LPOV - Ovar Air Base

DERNIER METAR :
  • 160300Z 16008KT 9999 BKN008 OVC015 18/18 Q1013

METARs EXPIRÉS :
  • 160200Z 17008KT 9999 SCT008 OVC015 18/17 Q1014
  • 160100Z 17005KT 9999 SCT008 OVC015 18/17 Q1015

TAF TAF LPOV
Valide du 16 à 00h jusqu'au 17 à 00h UTC


152305Z 1600/1624 35006KT 9999 SCT008 BKN014
PROB40 1600/1608 VRB02KT 1200 BR BKN003
BECMG 1608/1611 34012KT 9999 FEW012
PROB30
TEMPO 1614/1618 33012G22KT
BECMG 1622/1624 36008KT
Pas de NOTAMs connus pour ce terrain.



MET'MAP, la Météo Aéronautique d'un coup d'oeil ! - Copyright ORBIFLY Décembre 2007 - Disclaimer

ORBIFLY MET'MAP TEAM :

Programmation & Développement : Alexandra Zaïnal
Conception & Développement : Baudouin d'Aumeries
Co-Programmation & Développement : Marc-Olivier Méhu
Soutien technique & logistique : Manuel Goepfert

Contact : metmap@orbifly.com




SOURCES & CREDITS :

   NOAA